SVR1869 UWWW-HESH

Flight info

Callsign SVR1869
Flight time 4h 58m
Altitude 31000
Route K0841F310 URUKA2Y URUKA T691 GITEK T784 DENUD DCT PIRIM W324 AKT DCT IPLED DCT MKL DCT LURIS/N0449F310 N37 SARPI UN37 TBN UW706 SIV UT284 EVKIT UB545 VESAR DCT PASOS L550 DATOK DCT SHM DCT
Aircraft A321/M-SDE3FGHIRWY/LB1

Departure

Time 2026-05-05 16:31
Airport Kurumoch International Airport (UWWW)

Arrival

Time 2026-05-05 21:29
Airport Sharm El Sheikh International Airport (HESH)
Time Latitude Longitude Altitude Speed Heading
2026-05-05 15:36 53.51040 50.16019 449 ft 0 kts 331°
2026-05-05 16:25 53.51067 50.15994 432 ft 7 kts 331°
2026-05-05 16:25 53.51134 50.16092 436 ft 9 kts 62°
2026-05-05 16:25 53.51170 50.16201 434 ft 11 kts 61°
2026-05-05 16:26 53.51257 50.16466 425 ft 15 kts 61°
2026-05-05 16:26 53.51384 50.16709 416 ft 11 kts 329°
2026-05-05 16:27 53.51466 50.16659 410 ft 13 kts 340°
2026-05-05 16:27 53.51552 50.16607 415 ft 12 kts 340°
2026-05-05 16:27 53.51630 50.16560 415 ft 12 kts 340°
2026-05-05 16:27 53.51689 50.16530 413 ft 7 kts 351°
2026-05-05 16:28 53.51742 50.16541 411 ft 8 kts 18°
2026-05-05 16:28 53.51792 50.16607 414 ft 10 kts 54°
2026-05-05 16:28 53.51802 50.16641 405 ft 0 kts 69°
2026-05-05 16:29 53.51804 50.16651 409 ft 4 kts 69°
2026-05-05 16:29 53.51819 50.16722 415 ft 9 kts 71°
2026-05-05 16:29 53.51831 50.16836 413 ft 11 kts 99°
2026-05-05 16:30 53.51777 50.16896 414 ft 10 kts 162°
2026-05-05 16:30 53.51642 50.16976 414 ft 47 kts 160°
2026-05-05 16:30 53.51113 50.17292 411 ft 113 kts 160°
2026-05-05 16:30 53.50193 50.17841 414 ft 166 kts 161°
2026-05-05 16:31 53.49025 50.18490 940 ft 175 kts 163°
2026-05-05 16:31 53.47881 50.19147 1763 ft 174 kts 162°
2026-05-05 16:31 53.46731 50.19843 2438 ft 182 kts 162°
2026-05-05 16:31 53.45497 50.20593 2660 ft 197 kts 162°
2026-05-05 16:32 53.44147 50.21408 2794 ft 215 kts 162°
2026-05-05 16:32 53.42684 50.22289 2916 ft 233 kts 161°
2026-05-05 16:32 53.41088 50.23252 3037 ft 254 kts 160°
2026-05-05 16:32 53.39569 50.24783 3372 ft 264 kts 140°
2026-05-05 16:33 53.38164 50.26806 3879 ft 267 kts 140°
2026-05-05 16:33 53.36748 50.28837 4436 ft 269 kts 140°
2026-05-05 16:33 53.35321 50.30872 4982 ft 271 kts 141°
2026-05-05 16:33 53.33878 50.32920 5529 ft 272 kts 140°
2026-05-05 16:34 53.32428 50.34979 6057 ft 274 kts 140°
2026-05-05 16:34 53.30966 50.37057 6557 ft 277 kts 140°
2026-05-05 16:34 53.29488 50.39158 7034 ft 280 kts 139°
2026-05-05 16:34 53.27857 50.40952 7503 ft 283 kts 157°
2026-05-05 16:35 53.25946 50.41736 7974 ft 286 kts 177°
2026-05-05 16:35 53.23969 50.41372 8442 ft 289 kts 197°
2026-05-05 16:35 53.22079 50.40178 8901 ft 292 kts 201°
2026-05-05 16:35 53.20177 50.38927 9376 ft 295 kts 201°
2026-05-05 16:36 53.18255 50.37671 9840 ft 298 kts 201°
2026-05-05 16:36 53.16304 50.36399 10155 ft 307 kts 201°
2026-05-05 16:36 53.14270 50.35075 10268 ft 322 kts 201°
2026-05-05 16:36 53.12136 50.33688 10406 ft 336 kts 201°
2026-05-05 16:37 53.09917 50.32249 10528 ft 349 kts 201°
2026-05-05 16:37 53.07640 50.30775 10649 ft 362 kts 201°
2026-05-05 16:37 53.05261 50.29240 10856 ft 371 kts 201°
2026-05-05 16:37 53.02840 50.27678 11233 ft 375 kts 201°
2026-05-05 16:38 53.00398 50.26105 11649 ft 377 kts 201°
2026-05-05 16:38 52.97940 50.24522 12069 ft 380 kts 201°
2026-05-05 16:38 52.95467 50.22926 12487 ft 382 kts 201°
2026-05-05 16:38 52.92977 50.21317 12896 ft 385 kts 201°
2026-05-05 16:39 52.90474 50.19701 13294 ft 388 kts 201°
2026-05-05 16:39 52.87951 50.18074 13698 ft 390 kts 201°
2026-05-05 16:39 52.85404 50.16432 14057 ft 393 kts 201°
2026-05-05 16:39 52.82850 50.14794 14428 ft 394 kts 201°
2026-05-05 16:40 52.80284 50.13157 14805 ft 396 kts 201°
2026-05-05 16:40 52.77709 50.11517 15177 ft 398 kts 201°
2026-05-05 16:40 52.75118 50.09864 15550 ft 400 kts 201°
2026-05-05 16:40 52.72512 50.08203 15922 ft 402 kts 201°
2026-05-05 16:41 52.69892 50.06539 16278 ft 404 kts 201°
2026-05-05 16:41 52.67291 50.04891 16625 ft 406 kts 201°
2026-05-05 16:41 52.64641 50.03214 16968 ft 408 kts 201°
2026-05-05 16:41 52.61933 50.01806 17287 ft 410 kts 191°
2026-05-05 16:42 52.59101 50.01364 17601 ft 411 kts 178°
2026-05-05 16:42 52.56260 50.01972 17916 ft 412 kts 165°
2026-05-05 16:42 52.53574 50.03604 18240 ft 412 kts 152°
2026-05-05 16:42 52.51181 50.06163 18513 ft 412 kts 139°
2026-05-05 16:43 52.49036 50.09288 18768 ft 413 kts 137°
2026-05-05 16:43 52.46882 50.12436 19036 ft 415 kts 137°
2026-05-05 16:43 52.44716 50.15580 19303 ft 417 kts 137°
2026-05-05 16:43 52.42541 50.18724 19569 ft 418 kts 137°
2026-05-05 16:44 52.40350 50.21880 19855 ft 420 kts 137°
2026-05-05 16:44 52.38175 50.25008 20123 ft 422 kts 137°
2026-05-05 16:44 52.35968 50.28183 20393 ft 424 kts 137°
2026-05-05 16:44 52.33750 50.31373 20662 ft 425 kts 137°
2026-05-05 16:45 52.31519 50.34583 20934 ft 427 kts 137°
2026-05-05 16:45 52.29284 50.37800 21200 ft 429 kts 137°
2026-05-05 16:45 52.27042 50.41023 21459 ft 431 kts 137°
2026-05-05 16:45 52.24786 50.44261 21725 ft 432 kts 137°
2026-05-05 16:46 52.22519 50.47510 21985 ft 434 kts 137°
2026-05-05 16:46 52.20246 50.50761 22232 ft 436 kts 137°
2026-05-05 16:46 52.17963 50.54016 22484 ft 437 kts 137°
2026-05-05 16:46 52.15666 50.57277 22773 ft 438 kts 137°
2026-05-05 16:47 52.13365 50.60541 23070 ft 438 kts 136°
2026-05-05 16:47 52.11058 50.63814 23327 ft 440 kts 136°
2026-05-05 16:47 52.08782 50.67039 23574 ft 441 kts 136°
2026-05-05 16:47 52.06464 50.70319 23774 ft 442 kts 136°
2026-05-05 16:48 52.04138 50.73609 23990 ft 443 kts 137°
2026-05-05 16:48 52.01805 50.76898 24206 ft 445 kts 137°
2026-05-05 16:48 51.99460 50.80195 24422 ft 446 kts 138°
2026-05-05 16:48 51.96935 50.83135 24622 ft 449 kts 148°
2026-05-05 16:49 51.94109 50.85366 24833 ft 452 kts 158°
2026-05-05 16:49 51.91083 50.86793 25037 ft 455 kts 168°
2026-05-05 16:49 51.87923 50.87387 25242 ft 457 kts 176°
2026-05-05 16:49 51.84741 50.87585 25443 ft 458 kts 176°
2026-05-05 16:50 51.81550 50.87798 25650 ft 459 kts 176°
2026-05-05 16:50 51.78355 50.88021 25855 ft 460 kts 176°
2026-05-05 16:50 51.75147 50.88253 26058 ft 461 kts 176°
2026-05-05 16:50 51.71981 50.88477 26260 ft 462 kts 176°
2026-05-05 16:51 51.68763 50.88697 26461 ft 463 kts 176°
2026-05-05 16:51 51.65543 50.88912 26662 ft 464 kts 176°
2026-05-05 16:51 51.62316 50.89126 26860 ft 464 kts 176°
2026-05-05 16:51 51.59082 50.89340 27043 ft 465 kts 176°
2026-05-05 16:52 51.55850 50.89559 27235 ft 465 kts 176°
2026-05-05 16:52 51.52608 50.89781 27402 ft 466 kts 176°
2026-05-05 16:52 51.49359 50.90006 27566 ft 467 kts 176°
2026-05-05 16:52 51.46111 50.90231 27722 ft 467 kts 176°
2026-05-05 16:53 51.42856 50.90454 27870 ft 468 kts 176°
2026-05-05 16:53 51.39598 50.90671 28058 ft 468 kts 176°
2026-05-05 16:53 51.36352 50.90884 28276 ft 467 kts 176°
2026-05-05 16:53 51.33109 50.91096 28482 ft 466 kts 176°
2026-05-05 16:54 51.29871 50.91307 28690 ft 465 kts 176°
2026-05-05 16:54 51.26637 50.91518 28893 ft 465 kts 176°
2026-05-05 16:54 51.23409 50.91729 29095 ft 464 kts 176°
2026-05-05 16:54 51.20233 50.91939 29292 ft 463 kts 176°
2026-05-05 16:55 51.17012 50.92151 29500 ft 462 kts 176°
2026-05-05 16:55 51.13800 50.92362 29701 ft 461 kts 176°
2026-05-05 16:55 51.10593 50.92579 29898 ft 461 kts 176°
2026-05-05 16:55 51.07393 50.92799 30075 ft 460 kts 176°
2026-05-05 16:56 51.04189 50.93019 30200 ft 461 kts 176°
2026-05-05 16:56 51.00983 50.93234 30338 ft 460 kts 176°
2026-05-05 16:56 50.97773 50.93445 30482 ft 460 kts 176°
2026-05-05 16:56 50.94616 50.93651 30620 ft 460 kts 176°
2026-05-05 16:57 50.91420 50.93859 30766 ft 459 kts 176°
2026-05-05 16:57 50.88225 50.94064 30918 ft 459 kts 176°
2026-05-05 16:57 50.81863 50.94473 30957 ft 457 kts 176°
2026-05-05 16:58 50.75512 50.94900 30950 ft 456 kts 176°
2026-05-05 16:58 50.69174 50.95331 30948 ft 456 kts 176°
2026-05-05 16:59 50.63908 50.95674 30950 ft 455 kts 176°
2026-05-05 16:59 50.56538 50.96135 30950 ft 456 kts 177°
2026-05-05 17:00 50.51221 50.96471 30955 ft 456 kts 177°
2026-05-05 17:00 50.44917 50.96888 30969 ft 456 kts 176°
2026-05-05 17:01 50.38581 50.97296 30966 ft 456 kts 177°
2026-05-05 17:01 50.32247 50.97692 30965 ft 455 kts 177°
2026-05-05 17:02 50.25909 50.98088 30958 ft 455 kts 177°
2026-05-05 17:02 50.19573 50.98501 30955 ft 455 kts 176°
2026-05-05 17:03 50.13235 50.98909 30944 ft 456 kts 176°
2026-05-05 17:03 50.06901 50.99313 30949 ft 456 kts 176°
2026-05-05 17:04 50.00596 50.99715 30943 ft 456 kts 176°
2026-05-05 17:04 49.94237 51.00115 30934 ft 456 kts 176°
2026-05-05 17:05 49.87900 51.00514 30939 ft 456 kts 176°
2026-05-05 17:05 49.81562 51.00909 30930 ft 455 kts 176°
2026-05-05 17:06 49.75228 51.01308 30931 ft 455 kts 176°
2026-05-05 17:06 49.68899 51.01705 30925 ft 455 kts 176°
2026-05-05 17:07 49.62615 51.02096 30926 ft 454 kts 176°
2026-05-05 17:07 49.56292 51.02487 30912 ft 454 kts 176°
2026-05-05 17:08 49.49972 51.02881 30910 ft 454 kts 176°
2026-05-05 17:08 49.43657 51.03281 30909 ft 454 kts 176°
2026-05-05 17:09 49.37341 51.03667 30898 ft 454 kts 176°
2026-05-05 17:09 49.31031 51.04048 30908 ft 453 kts 176°
2026-05-05 17:10 49.24740 51.04437 30905 ft 452 kts 176°
2026-05-05 17:10 49.18454 51.04818 30904 ft 452 kts 176°
2026-05-05 17:11 49.12209 51.05201 30898 ft 451 kts 176°
2026-05-05 17:11 49.05941 51.05586 30907 ft 449 kts 176°
2026-05-05 17:12 48.99702 51.05967 30905 ft 447 kts 176°
2026-05-05 17:12 48.93490 51.06344 30905 ft 446 kts 176°
2026-05-05 17:13 48.87299 51.06715 30897 ft 445 kts 176°
2026-05-05 17:13 48.81117 51.07090 30883 ft 443 kts 177°
2026-05-05 17:14 48.74966 51.07455 30892 ft 441 kts 177°
2026-05-05 17:14 48.68852 51.07820 30880 ft 439 kts 177°
2026-05-05 17:15 48.62762 51.08183 30878 ft 438 kts 177°
2026-05-05 17:15 48.56720 51.08553 30866 ft 437 kts 177°
2026-05-05 17:16 48.50651 51.08921 30858 ft 435 kts 178°
2026-05-05 17:16 48.44602 51.09272 30856 ft 434 kts 178°
2026-05-05 17:17 48.38571 51.09623 30847 ft 433 kts 178°
2026-05-05 17:17 48.32547 51.09968 30844 ft 433 kts 178°
2026-05-05 17:18 48.26536 51.10327 30848 ft 432 kts 177°
2026-05-05 17:18 48.20531 51.10695 30844 ft 431 kts 177°
2026-05-05 17:19 48.14571 51.11047 30832 ft 430 kts 177°
2026-05-05 17:19 48.08552 51.11394 30821 ft 430 kts 177°
2026-05-05 17:20 48.02617 51.11733 30816 ft 429 kts 176°
2026-05-05 17:20 47.96650 51.12081 30813 ft 429 kts 176°
2026-05-05 17:21 47.90697 51.12429 30822 ft 428 kts 176°
2026-05-05 17:22 47.81746 51.12951 30806 ft 429 kts 176°
2026-05-05 17:22 47.75778 51.13294 30800 ft 429 kts 176°
2026-05-05 17:23 47.69808 51.13639 30798 ft 429 kts 176°
2026-05-05 17:23 47.63832 51.13986 30794 ft 430 kts 176°
2026-05-05 17:24 47.57851 51.14334 30794 ft 430 kts 176°
2026-05-05 17:24 47.51902 51.14677 30794 ft 431 kts 176°
2026-05-05 17:25 47.45897 51.15010 30796 ft 431 kts 176°
2026-05-05 17:25 47.39904 51.15348 30796 ft 431 kts 176°
2026-05-05 17:26 47.33905 51.15694 30783 ft 431 kts 176°
2026-05-05 17:26 47.27912 51.16035 30793 ft 431 kts 176°
2026-05-05 17:27 47.21949 51.16381 30767 ft 433 kts 176°
2026-05-05 17:27 47.15907 51.16723 30760 ft 436 kts 176°
2026-05-05 17:28 47.09824 51.17059 30757 ft 438 kts 176°
2026-05-05 17:28 47.03711 51.17398 30754 ft 440 kts 176°
2026-05-05 17:29 46.97591 51.17743 30771 ft 440 kts 176°
2026-05-05 17:29 46.91464 51.18088 30768 ft 441 kts 176°
2026-05-05 17:30 46.85319 51.18437 30783 ft 442 kts 176°
2026-05-05 17:30 46.79165 51.18780 30777 ft 443 kts 176°
2026-05-05 17:31 46.72996 51.19118 30776 ft 444 kts 177°
2026-05-05 17:31 46.66823 51.19460 30777 ft 444 kts 177°
2026-05-05 17:32 46.60672 51.19803 30777 ft 445 kts 177°
2026-05-05 17:32 46.54482 51.20152 30792 ft 445 kts 176°
2026-05-05 17:33 46.48284 51.20500 30795 ft 445 kts 177°
2026-05-05 17:33 46.42101 51.20844 30830 ft 443 kts 179°
2026-05-05 17:34 46.35939 51.21176 30837 ft 441 kts 179°
2026-05-05 17:34 46.29854 51.21499 30826 ft 440 kts 179°
2026-05-05 17:35 46.23743 51.21833 30828 ft 439 kts 179°
2026-05-05 17:35 46.17657 51.22167 30848 ft 436 kts 180°
2026-05-05 17:36 46.11601 51.22499 30848 ft 434 kts 180°
2026-05-05 17:36 46.05571 51.22824 30846 ft 432 kts 180°
2026-05-05 17:37 45.99566 51.23158 30850 ft 432 kts 180°
2026-05-05 17:37 45.93577 51.23480 30852 ft 429 kts 181°
2026-05-05 17:38 45.87626 51.23799 30861 ft 426 kts 181°
2026-05-05 17:38 45.81707 51.24123 30861 ft 425 kts 181°
2026-05-05 17:39 45.75841 51.24439 30855 ft 424 kts 181°
2026-05-05 17:39 45.69959 51.24753 30851 ft 421 kts 183°
2026-05-05 17:40 45.64125 51.25063 30863 ft 418 kts 183°
2026-05-05 17:40 45.58321 51.25375 30867 ft 416 kts 183°
2026-05-05 17:41 45.52538 51.25686 30866 ft 415 kts 183°
2026-05-05 17:41 45.46771 51.25986 30845 ft 413 kts 184°
2026-05-05 17:42 45.41076 51.26292 30872 ft 411 kts 184°
2026-05-05 17:42 45.35375 51.26596 30874 ft 409 kts 184°
2026-05-05 17:43 45.29696 51.26900 30876 ft 408 kts 184°
2026-05-05 17:43 45.24032 51.27195 30851 ft 407 kts 184°
2026-05-05 17:44 45.18393 51.27496 30876 ft 405 kts 184°
2026-05-05 17:44 45.12778 51.27786 30878 ft 403 kts 184°
2026-05-05 17:45 45.07179 51.28073 30873 ft 402 kts 184°
2026-05-05 17:45 45.01591 51.28361 30876 ft 401 kts 184°
2026-05-05 17:46 44.96020 51.28652 30854 ft 400 kts 184°
2026-05-05 17:46 44.90446 51.28940 30881 ft 400 kts 184°
2026-05-05 17:47 44.84921 51.29228 30878 ft 400 kts 184°
2026-05-05 17:47 44.79390 51.29249 30883 ft 393 kts 193°
2026-05-05 17:48 44.74896 51.28152 30838 ft 391 kts 195°
2026-05-05 17:48 44.69579 51.26806 30857 ft 391 kts 195°
2026-05-05 17:49 44.64229 51.25460 30878 ft 390 kts 195°
2026-05-05 17:49 44.58880 51.24122 30887 ft 390 kts 195°
2026-05-05 17:50 44.53537 51.22788 30895 ft 390 kts 195°
2026-05-05 17:50 44.48195 51.21458 30903 ft 390 kts 195°
2026-05-05 17:51 44.42857 51.20134 30905 ft 390 kts 195°
2026-05-05 17:51 44.37519 51.18810 30934 ft 389 kts 195°
2026-05-05 17:52 44.32181 51.17489 30929 ft 389 kts 195°
2026-05-05 17:52 44.26886 51.16175 30930 ft 388 kts 195°
2026-05-05 17:53 44.21560 51.14860 30890 ft 388 kts 195°
2026-05-05 17:53 44.16252 51.13558 30911 ft 387 kts 195°
2026-05-05 17:54 44.10941 51.12244 30939 ft 387 kts 195°
2026-05-05 17:54 44.05646 51.10932 30949 ft 386 kts 195°
2026-05-05 17:55 44.00357 51.09632 30954 ft 386 kts 195°
2026-05-05 17:55 43.95064 51.08344 30921 ft 386 kts 194°
2026-05-05 17:56 43.90019 51.06277 30923 ft 378 kts 211°
2026-05-05 17:56 43.87867 51.04205 30950 ft 376 kts 222°
2026-05-05 17:56 43.86109 51.01519 30950 ft 378 kts 233°
2026-05-05 17:57 43.83831 50.94918 30946 ft 383 kts 243°
2026-05-05 17:57 43.81812 50.88090 30940 ft 383 kts 243°
2026-05-05 17:58 43.79772 50.81279 30940 ft 383 kts 243°
2026-05-05 17:58 43.77734 50.74470 30960 ft 383 kts 243°
2026-05-05 17:59 43.75702 50.67661 30962 ft 382 kts 243°
2026-05-05 17:59 43.73681 50.60918 30960 ft 382 kts 243°
2026-05-05 18:00 43.71644 50.54139 30961 ft 381 kts 243°
2026-05-05 18:00 43.69607 50.47353 30959 ft 381 kts 243°
2026-05-05 18:01 43.67564 50.40588 30971 ft 381 kts 243°
2026-05-05 18:01 43.65514 50.33840 30966 ft 381 kts 243°
2026-05-05 18:02 43.63479 50.27145 31003 ft 381 kts 243°
2026-05-05 18:02 43.61424 50.20403 30990 ft 381 kts 243°
2026-05-05 18:03 43.59368 50.13668 30986 ft 381 kts 243°
2026-05-05 18:03 43.57308 50.06952 30975 ft 380 kts 242°
2026-05-05 18:04 43.55246 50.00221 30975 ft 380 kts 243°
2026-05-05 18:04 43.53183 49.93504 30977 ft 380 kts 242°
2026-05-05 18:05 43.51110 49.86799 30976 ft 380 kts 242°
2026-05-05 18:05 43.49038 49.80097 30991 ft 380 kts 242°
2026-05-05 18:06 43.46965 49.73394 30983 ft 381 kts 242°
2026-05-05 18:06 43.44891 49.66731 30977 ft 381 kts 242°
2026-05-05 18:07 43.42796 49.60028 30973 ft 381 kts 242°
2026-05-05 18:07 43.40696 49.53329 30974 ft 381 kts 242°
2026-05-05 18:08 43.38596 49.46620 30983 ft 381 kts 242°
2026-05-05 18:08 43.36473 49.39934 30985 ft 382 kts 242°
2026-05-05 18:09 43.34346 49.33299 30981 ft 382 kts 242°
2026-05-05 18:09 43.32208 49.26618 30983 ft 382 kts 242°
2026-05-05 18:10 43.30067 49.19948 30998 ft 382 kts 242°
2026-05-05 18:10 43.27918 49.13266 30983 ft 383 kts 242°
2026-05-05 18:11 43.25760 49.06559 30984 ft 384 kts 242°
2026-05-05 18:11 43.23599 48.99861 30982 ft 384 kts 242°
2026-05-05 18:12 43.21440 48.93215 30985 ft 384 kts 242°
2026-05-05 18:12 43.19260 48.86514 30986 ft 385 kts 242°
2026-05-05 18:13 43.17080 48.79793 30984 ft 386 kts 242°
2026-05-05 18:13 43.14884 48.73067 30984 ft 387 kts 242°
2026-05-05 18:14 43.12685 48.66332 30986 ft 388 kts 242°
2026-05-05 18:14 43.10474 48.59604 30988 ft 388 kts 242°
2026-05-05 18:15 43.08247 48.52855 30977 ft 390 kts 242°
2026-05-05 18:15 43.06012 48.46084 30988 ft 391 kts 242°
2026-05-05 18:16 43.03788 48.39356 30991 ft 392 kts 242°
2026-05-05 18:16 43.01533 48.32570 30993 ft 392 kts 242°
2026-05-05 18:17 42.99275 48.25773 30985 ft 393 kts 242°
2026-05-05 18:17 42.97011 48.18963 30988 ft 394 kts 242°
2026-05-05 18:18 42.94734 48.12128 31005 ft 396 kts 242°
2026-05-05 18:18 42.92440 48.05278 31003 ft 397 kts 242°
2026-05-05 18:19 42.90129 47.98408 31011 ft 399 kts 242°
2026-05-05 18:19 42.87830 47.91565 30998 ft 400 kts 242°
2026-05-05 18:20 42.85504 47.84668 30994 ft 401 kts 242°
2026-05-05 18:20 42.83160 47.77760 31018 ft 401 kts 242°
2026-05-05 18:21 42.80819 47.70849 31022 ft 402 kts 242°
2026-05-05 18:21 42.78862 47.63703 31027 ft 406 kts 252°
2026-05-05 18:22 42.77484 47.56284 31020 ft 407 kts 252°
2026-05-05 18:22 42.76088 47.48807 31020 ft 408 kts 252°
2026-05-05 18:23 42.74685 47.41327 31015 ft 408 kts 252°
2026-05-05 18:23 42.73270 47.33848 31028 ft 408 kts 252°
2026-05-05 18:24 42.71848 47.26369 31013 ft 409 kts 252°
2026-05-05 18:24 42.70420 47.18872 31004 ft 409 kts 252°
2026-05-05 18:25 42.68989 47.11384 31004 ft 410 kts 252°
2026-05-05 18:25 42.67556 47.03893 31001 ft 409 kts 252°
2026-05-05 18:26 42.66123 46.96438 31011 ft 410 kts 252°
2026-05-05 18:26 42.64672 46.88942 31007 ft 410 kts 251°
2026-05-05 18:27 42.63220 46.81455 31001 ft 410 kts 251°
2026-05-05 18:27 42.61768 46.73965 31005 ft 410 kts 252°
2026-05-05 18:28 42.59570 46.62744 31004 ft 410 kts 251°
2026-05-05 18:28 42.58100 46.55258 30994 ft 410 kts 252°
2026-05-05 18:29 42.56627 46.47769 30985 ft 411 kts 251°
2026-05-05 18:29 42.55143 46.40279 30988 ft 411 kts 252°
2026-05-05 18:30 42.53659 46.32795 30988 ft 411 kts 251°
2026-05-05 18:30 42.52170 46.25346 30990 ft 412 kts 252°
2026-05-05 18:31 42.50664 46.17844 30981 ft 412 kts 252°
2026-05-05 18:31 42.49154 46.10331 30988 ft 413 kts 252°
2026-05-05 18:32 42.47632 46.02799 30964 ft 415 kts 252°
2026-05-05 18:32 42.46113 45.95270 30965 ft 418 kts 252°
2026-05-05 18:33 42.44570 45.87679 30964 ft 418 kts 252°
2026-05-05 18:33 42.43016 45.80085 30972 ft 419 kts 252°
2026-05-05 18:34 42.41556 45.72444 30980 ft 420 kts 255°
2026-05-05 18:34 42.40435 45.64661 30985 ft 421 kts 257°
2026-05-05 18:35 42.39379 45.56883 30982 ft 420 kts 256°
2026-05-05 18:35 42.38258 45.49190 30978 ft 419 kts 256°
2026-05-05 18:36 42.37083 45.41458 30988 ft 420 kts 256°
2026-05-05 18:36 42.35902 45.33724 30986 ft 420 kts 256°
2026-05-05 18:37 42.34723 45.25986 30962 ft 421 kts 256°
2026-05-05 18:37 42.33544 45.18221 30967 ft 422 kts 256°
2026-05-05 18:38 42.32351 45.10431 30964 ft 424 kts 256°
2026-05-05 18:38 42.31346 45.03934 30964 ft 424 kts 256°
2026-05-05 18:39 42.30131 44.96127 30966 ft 425 kts 256°
2026-05-05 18:39 42.28914 44.88320 30969 ft 425 kts 256°
2026-05-05 18:40 42.27697 44.80504 30969 ft 425 kts 256°
2026-05-05 18:40 42.26468 44.72686 30965 ft 426 kts 256°
2026-05-05 18:41 42.25232 44.64860 30971 ft 426 kts 256°
2026-05-05 18:41 42.23999 44.57076 31148 ft 428 kts 256°
2026-05-05 18:42 42.23373 44.53150 31299 ft 429 kts 256°
2026-05-05 18:42 42.22741 44.49202 31451 ft 430 kts 256°
2026-05-05 18:42 42.22108 44.45252 31601 ft 431 kts 256°
2026-05-05 18:42 42.21475 44.41301 31756 ft 432 kts 256°
2026-05-05 18:43 42.20840 44.37341 31923 ft 432 kts 256°
2026-05-05 18:43 42.20204 44.33378 31980 ft 433 kts 256°
2026-05-05 18:43 42.18928 44.25451 31981 ft 432 kts 255°
2026-05-05 18:44 42.17637 44.17521 31980 ft 432 kts 255°
2026-05-05 18:44 42.16343 44.09606 31980 ft 432 kts 255°
2026-05-05 18:45 42.15043 44.01678 31980 ft 433 kts 255°
2026-05-05 18:45 42.13753 43.93807 31982 ft 433 kts 255°
2026-05-05 18:46 42.12445 43.85878 31987 ft 434 kts 255°
2026-05-05 18:46 42.11125 43.77936 31981 ft 435 kts 255°
2026-05-05 18:47 42.09795 43.69980 31991 ft 435 kts 255°
2026-05-05 18:47 42.08403 43.62043 31985 ft 436 kts 252°
2026-05-05 18:48 42.06646 43.54152 31986 ft 442 kts 250°
2026-05-05 18:48 42.04766 43.46349 31986 ft 436 kts 250°
2026-05-05 18:49 42.02942 43.38580 31994 ft 435 kts 250°
2026-05-05 18:49 42.01170 43.30797 31995 ft 435 kts 251°
2026-05-05 18:50 41.99406 43.23012 31993 ft 435 kts 250°
2026-05-05 18:50 41.97616 43.15242 31995 ft 435 kts 250°
2026-05-05 18:51 41.95810 43.07472 32008 ft 436 kts 250°
2026-05-05 18:51 41.94014 42.99735 32000 ft 437 kts 250°
2026-05-05 18:52 41.92201 42.91931 31997 ft 438 kts 250°
2026-05-05 18:52 41.90377 42.84118 32000 ft 438 kts 250°
2026-05-05 18:53 41.88526 42.76321 32008 ft 438 kts 249°
2026-05-05 18:53 41.86633 42.68544 32031 ft 439 kts 249°
2026-05-05 18:54 41.84738 42.60764 32030 ft 438 kts 249°
2026-05-05 18:54 41.82852 42.53033 32028 ft 439 kts 249°
2026-05-05 18:55 41.80952 42.45259 32027 ft 438 kts 249°
2026-05-05 18:55 41.79046 42.37484 32036 ft 439 kts 249°
2026-05-05 18:56 41.77139 42.29718 32055 ft 439 kts 249°
2026-05-05 18:56 41.75228 42.21946 32055 ft 439 kts 249°
2026-05-05 18:57 41.73310 42.14191 32051 ft 439 kts 249°
2026-05-05 18:57 41.71395 42.06490 32059 ft 439 kts 249°
2026-05-05 18:58 41.69460 41.98687 32072 ft 439 kts 248°
2026-05-05 18:58 41.67552 41.90980 32059 ft 438 kts 248°
2026-05-05 18:59 41.65619 41.83225 32070 ft 439 kts 248°
2026-05-05 18:59 41.63671 41.75490 32070 ft 439 kts 248°
2026-05-05 19:00 41.61720 41.67756 32076 ft 439 kts 248°
2026-05-05 19:00 41.59745 41.60047 32075 ft 438 kts 246°
2026-05-05 19:01 41.57456 41.52511 32076 ft 437 kts 243°
2026-05-05 19:01 41.54993 41.45158 32076 ft 436 kts 243°
2026-05-05 19:02 41.52527 41.37749 32076 ft 437 kts 243°
2026-05-05 19:02 41.50094 41.30310 32074 ft 438 kts 243°
2026-05-05 19:03 41.47668 41.22859 32065 ft 438 kts 243°
2026-05-05 19:03 41.45240 41.15402 32073 ft 439 kts 243°
2026-05-05 19:04 41.42800 41.07943 32080 ft 439 kts 243°
2026-05-05 19:04 41.40338 41.00493 32077 ft 439 kts 242°
2026-05-05 19:05 41.37867 40.93048 32076 ft 439 kts 242°
2026-05-05 19:05 41.35399 40.85603 32076 ft 439 kts 242°
2026-05-05 19:06 41.32945 40.78208 32087 ft 440 kts 242°
2026-05-05 19:06 41.30461 40.70764 32082 ft 440 kts 242°
2026-05-05 19:07 41.27975 40.63329 32082 ft 440 kts 242°
2026-05-05 19:07 41.25491 40.55899 32081 ft 440 kts 242°
2026-05-05 19:08 41.22995 40.48466 32088 ft 440 kts 242°
2026-05-05 19:08 41.20486 40.41043 32085 ft 441 kts 242°
2026-05-05 19:09 41.17973 40.33620 32098 ft 441 kts 242°
2026-05-05 19:09 41.15466 40.26186 32090 ft 442 kts 242°
2026-05-05 19:10 41.12965 40.18794 32087 ft 442 kts 242°
2026-05-05 19:10 41.10434 40.11360 32091 ft 442 kts 242°
2026-05-05 19:11 41.07892 40.03925 32093 ft 442 kts 242°
2026-05-05 19:11 41.05350 39.96506 32115 ft 442 kts 242°
2026-05-05 19:12 41.02804 39.89098 32105 ft 442 kts 242°
2026-05-05 19:12 41.00262 39.81729 32102 ft 443 kts 242°
2026-05-05 19:13 40.97611 39.74374 32106 ft 441 kts 239°
2026-05-05 19:13 40.94745 39.67193 32112 ft 441 kts 238°
2026-05-05 19:14 40.91843 39.60032 32095 ft 441 kts 238°
2026-05-05 19:14 40.88987 39.52836 32090 ft 442 kts 239°
2026-05-05 19:15 40.86170 39.45677 32087 ft 442 kts 239°
2026-05-05 19:15 40.83322 39.38486 32080 ft 441 kts 239°
2026-05-05 19:16 40.80470 39.31313 32085 ft 441 kts 239°
2026-05-05 19:16 40.77612 39.24134 32079 ft 441 kts 239°
2026-05-05 19:17 40.74755 39.16978 32092 ft 441 kts 239°
2026-05-05 19:17 40.71889 39.09842 32086 ft 440 kts 239°
2026-05-05 19:18 40.69025 39.02712 32079 ft 440 kts 239°
2026-05-05 19:18 40.66164 38.95580 32069 ft 440 kts 239°
2026-05-05 19:19 40.63312 38.88506 32074 ft 440 kts 239°
2026-05-05 19:19 40.60428 38.81397 32068 ft 440 kts 239°
2026-05-05 19:20 40.57530 38.74302 32056 ft 440 kts 239°
2026-05-05 19:20 40.54632 38.67211 32047 ft 440 kts 239°
2026-05-05 19:21 40.51732 38.60126 32051 ft 440 kts 239°
2026-05-05 19:21 40.48812 38.53065 32038 ft 439 kts 238°
2026-05-05 19:22 40.45806 38.46072 32033 ft 439 kts 238°
2026-05-05 19:22 40.42775 38.39103 32037 ft 439 kts 238°
2026-05-05 19:23 40.39780 38.32173 32027 ft 440 kts 238°
2026-05-05 19:23 40.36785 38.25164 32018 ft 440 kts 239°
2026-05-05 19:24 40.33923 38.18051 32021 ft 441 kts 240°
2026-05-05 19:24 40.31091 38.10922 32020 ft 441 kts 240°
2026-05-05 19:25 40.28146 38.03879 32021 ft 440 kts 239°
2026-05-05 19:25 40.25141 37.96884 32018 ft 441 kts 239°
2026-05-05 19:26 40.22649 37.91077 32017 ft 441 kts 239°
2026-05-05 19:26 40.19661 37.84068 32021 ft 441 kts 240°
2026-05-05 19:27 40.16190 37.75921 32019 ft 441 kts 240°
2026-05-05 19:27 40.13203 37.68915 32024 ft 441 kts 240°
2026-05-05 19:28 40.10714 37.63097 32026 ft 441 kts 239°
2026-05-05 19:28 40.07712 37.56108 32024 ft 441 kts 239°
2026-05-05 19:29 40.04714 37.49107 32018 ft 441 kts 240°
2026-05-05 19:29 40.01722 37.42102 32018 ft 441 kts 240°
2026-05-05 19:30 39.98733 37.35109 32019 ft 441 kts 240°
2026-05-05 19:30 39.95751 37.28173 32018 ft 441 kts 240°
2026-05-05 19:31 39.92744 37.21197 32029 ft 441 kts 240°
2026-05-05 19:31 39.89740 37.14218 32037 ft 441 kts 240°
2026-05-05 19:32 39.86725 37.07254 32038 ft 442 kts 240°
2026-05-05 19:32 39.83699 37.00296 32043 ft 442 kts 240°
2026-05-05 19:33 39.80663 36.93348 32045 ft 442 kts 238°
2026-05-05 19:33 39.76705 36.87286 32034 ft 442 kts 220°
2026-05-05 19:34 39.71742 36.82554 32031 ft 443 kts 216°
2026-05-05 19:35 39.64259 36.75493 32021 ft 444 kts 217°
2026-05-05 19:35 39.59260 36.70773 32010 ft 445 kts 217°
2026-05-05 19:36 39.54245 36.66060 32013 ft 446 kts 217°
2026-05-05 19:36 39.49217 36.61351 32009 ft 446 kts 217°
2026-05-05 19:37 39.44208 36.56665 32010 ft 447 kts 217°
2026-05-05 19:37 39.39156 36.51951 32015 ft 448 kts 217°
2026-05-05 19:38 39.34097 36.47234 32010 ft 449 kts 218°
2026-05-05 19:38 39.29026 36.42512 32012 ft 450 kts 217°
2026-05-05 19:39 39.23946 36.37789 32020 ft 450 kts 217°
2026-05-05 19:39 39.18863 36.33073 32006 ft 451 kts 218°
2026-05-05 19:40 39.13766 36.28357 32016 ft 451 kts 218°
2026-05-05 19:40 39.08665 36.23637 32025 ft 451 kts 218°
2026-05-05 19:41 39.03558 36.18926 32022 ft 451 kts 218°
2026-05-05 19:41 38.98449 36.14218 32031 ft 451 kts 218°
2026-05-05 19:42 38.93338 36.09533 32025 ft 451 kts 218°
2026-05-05 19:42 38.88217 36.04840 32028 ft 451 kts 218°
2026-05-05 19:43 38.83106 36.00159 32035 ft 451 kts 218°
2026-05-05 19:43 38.78020 35.95512 32033 ft 451 kts 218°
2026-05-05 19:44 38.72892 35.90833 32035 ft 451 kts 218°
2026-05-05 19:44 38.67776 35.86162 32035 ft 451 kts 218°
2026-05-05 19:45 38.62656 35.81511 32032 ft 451 kts 219°
2026-05-05 19:45 38.57533 35.76876 32041 ft 451 kts 219°
2026-05-05 19:46 38.52444 35.72264 32032 ft 451 kts 219°
2026-05-05 19:46 38.47323 35.67625 32023 ft 451 kts 219°
2026-05-05 19:47 38.42194 35.62999 32033 ft 451 kts 219°
2026-05-05 19:47 38.37065 35.58383 32043 ft 451 kts 219°
2026-05-05 19:48 38.31942 35.53771 32045 ft 450 kts 219°
2026-05-05 19:48 38.26823 35.49177 32034 ft 450 kts 220°
2026-05-05 19:49 38.21692 35.44592 32173 ft 452 kts 220°
2026-05-05 19:49 38.16528 35.39982 32430 ft 455 kts 220°
2026-05-05 19:49 38.13932 35.37669 32560 ft 456 kts 220°
2026-05-05 19:50 38.11334 35.35357 32686 ft 457 kts 220°
2026-05-05 19:50 38.08732 35.33044 32828 ft 457 kts 220°
2026-05-05 19:50 38.06129 35.30730 32962 ft 456 kts 220°
2026-05-05 19:50 38.03532 35.28422 33122 ft 455 kts 220°
2026-05-05 19:51 38.00938 35.26117 33279 ft 454 kts 220°
2026-05-05 19:51 37.98348 35.23819 33427 ft 454 kts 220°
2026-05-05 19:51 37.95756 35.21526 33596 ft 454 kts 220°
2026-05-05 19:51 37.93194 35.19263 33746 ft 455 kts 220°
2026-05-05 19:52 37.90597 35.16970 33909 ft 455 kts 220°
2026-05-05 19:52 37.87997 35.14672 34015 ft 456 kts 220°
2026-05-05 19:52 37.85397 35.12368 34052 ft 456 kts 220°
2026-05-05 19:53 37.80196 35.07775 34044 ft 456 kts 220°
2026-05-05 19:53 37.74992 35.03204 34053 ft 455 kts 221°
2026-05-05 19:54 37.69824 34.98663 34027 ft 455 kts 221°
2026-05-05 19:54 37.64635 34.94110 34053 ft 454 kts 221°
2026-05-05 19:55 37.59444 34.89567 34066 ft 454 kts 221°
2026-05-05 19:55 37.54251 34.85030 34061 ft 454 kts 221°
2026-05-05 19:56 37.49055 34.80496 34061 ft 454 kts 221°
2026-05-05 19:56 37.43857 34.75967 34046 ft 454 kts 221°
2026-05-05 19:57 37.38659 34.71442 34054 ft 454 kts 221°
2026-05-05 19:57 37.33466 34.66930 34062 ft 453 kts 221°
2026-05-05 19:58 37.28308 34.62465 34063 ft 453 kts 221°
2026-05-05 19:58 37.23121 34.57987 34060 ft 452 kts 221°
2026-05-05 19:59 37.17949 34.53527 34045 ft 451 kts 221°
2026-05-05 19:59 37.12776 34.49062 34039 ft 451 kts 221°
2026-05-05 20:00 37.07611 34.44612 34022 ft 450 kts 221°
2026-05-05 20:00 37.02451 34.40171 34051 ft 449 kts 220°
2026-05-05 20:01 36.97304 34.35755 34039 ft 447 kts 220°
2026-05-05 20:01 36.92203 34.31398 34064 ft 446 kts 220°
2026-05-05 20:02 36.87083 34.27029 34061 ft 445 kts 220°
2026-05-05 20:02 36.81977 34.22664 34038 ft 443 kts 220°
2026-05-05 20:03 36.76890 34.18316 34051 ft 442 kts 220°
2026-05-05 20:03 36.71810 34.13998 34044 ft 442 kts 219°
2026-05-05 20:04 36.66764 34.09725 34035 ft 441 kts 219°
2026-05-05 20:04 36.61698 34.05428 34040 ft 440 kts 219°
2026-05-05 20:05 36.56635 34.01138 34028 ft 440 kts 219°
2026-05-05 20:05 36.51571 33.96867 34019 ft 439 kts 219°
2026-05-05 20:06 36.46522 33.92612 34025 ft 438 kts 219°
2026-05-05 20:06 36.41473 33.88358 34032 ft 438 kts 219°
2026-05-05 20:07 36.36421 33.84106 33998 ft 438 kts 219°
2026-05-05 20:07 36.31295 33.80102 34014 ft 444 kts 208°
2026-05-05 20:07 36.28324 33.78933 34022 ft 453 kts 195°
2026-05-05 20:08 36.25163 33.78646 34022 ft 462 kts 181°
2026-05-05 20:08 36.21954 33.79303 34023 ft 472 kts 167°
2026-05-05 20:08 36.18923 33.80906 34009 ft 479 kts 153°
2026-05-05 20:09 36.13225 33.85232 33979 ft 481 kts 152°
2026-05-05 20:09 36.07520 33.89568 33986 ft 482 kts 152°
2026-05-05 20:10 36.01826 33.93868 33997 ft 482 kts 152°
2026-05-05 20:10 35.96017 33.97968 34000 ft 477 kts 162°
2026-05-05 20:11 35.89706 33.99967 33983 ft 463 kts 181°
2026-05-05 20:11 35.83399 33.99509 33993 ft 448 kts 198°
2026-05-05 20:12 35.77288 33.97923 34001 ft 449 kts 198°
2026-05-05 20:12 35.71161 33.96344 34019 ft 450 kts 198°
2026-05-05 20:13 35.65030 33.94766 33997 ft 450 kts 198°
2026-05-05 20:13 35.58934 33.93194 34012 ft 451 kts 198°
2026-05-05 20:14 35.52780 33.91617 34022 ft 451 kts 198°
2026-05-05 20:14 35.46627 33.90039 34034 ft 451 kts 197°
2026-05-05 20:15 35.40474 33.88464 34038 ft 452 kts 198°
2026-05-05 20:15 35.34325 33.86887 34045 ft 451 kts 197°
2026-05-05 20:16 35.29207 33.85584 34035 ft 452 kts 197°
2026-05-05 20:16 35.22048 33.83769 34048 ft 452 kts 197°
2026-05-05 20:17 35.16886 33.82455 34049 ft 452 kts 198°
2026-05-05 20:17 35.10729 33.80886 34029 ft 452 kts 197°
2026-05-05 20:18 35.04609 33.79328 34049 ft 451 kts 197°
2026-05-05 20:18 34.98462 33.77769 34051 ft 451 kts 197°
2026-05-05 20:19 34.92313 33.76225 34020 ft 451 kts 197°
2026-05-05 20:19 34.86166 33.74672 34041 ft 451 kts 197°
2026-05-05 20:20 34.80025 33.73114 34044 ft 450 kts 197°
2026-05-05 20:20 34.73883 33.71568 34046 ft 450 kts 197°
2026-05-05 20:21 34.67751 33.70028 34036 ft 450 kts 197°
2026-05-05 20:21 34.61659 33.68508 34046 ft 449 kts 197°
2026-05-05 20:22 34.55533 33.66976 34045 ft 450 kts 197°
2026-05-05 20:22 34.49402 33.65439 34029 ft 450 kts 197°
2026-05-05 20:23 34.43273 33.63907 34043 ft 449 kts 197°
2026-05-05 20:23 34.37140 33.62368 34050 ft 449 kts 197°
2026-05-05 20:24 34.31015 33.60837 34032 ft 449 kts 197°
2026-05-05 20:24 34.24892 33.59311 34045 ft 449 kts 197°
2026-05-05 20:25 34.18776 33.57796 34060 ft 449 kts 197°
2026-05-05 20:25 34.12701 33.56294 34063 ft 449 kts 197°
2026-05-05 20:26 34.06589 33.54778 34056 ft 448 kts 197°
2026-05-05 20:26 34.00474 33.53265 34066 ft 448 kts 197°
2026-05-05 20:27 33.94364 33.51757 34066 ft 448 kts 197°
2026-05-05 20:27 33.88261 33.50253 34058 ft 447 kts 197°
2026-05-05 20:28 33.82212 33.48764 34081 ft 446 kts 197°
2026-05-05 20:28 33.76137 33.47274 34078 ft 445 kts 197°
2026-05-05 20:29 33.70064 33.45783 34046 ft 445 kts 198°
2026-05-05 20:29 33.63998 33.44297 34070 ft 444 kts 198°
2026-05-05 20:30 33.57955 33.42815 34079 ft 443 kts 198°
2026-05-05 20:30 33.51919 33.41339 34082 ft 443 kts 198°
2026-05-05 20:31 33.45887 33.39877 34085 ft 442 kts 198°
2026-05-05 20:31 33.39849 33.38412 34082 ft 442 kts 198°
2026-05-05 20:32 33.33815 33.36947 34077 ft 442 kts 198°
2026-05-05 20:32 33.27794 33.35475 34065 ft 441 kts 198°
2026-05-05 20:33 33.21819 33.34019 34084 ft 441 kts 198°
2026-05-05 20:33 33.15806 33.32565 34086 ft 441 kts 198°
2026-05-05 20:34 33.09786 33.31113 34057 ft 441 kts 198°
2026-05-05 20:34 33.03776 33.29655 34075 ft 440 kts 198°
2026-05-05 20:35 32.97778 33.28209 34086 ft 439 kts 198°
2026-05-05 20:35 32.91796 33.26766 34088 ft 438 kts 198°
2026-05-05 20:36 32.85820 33.25325 34065 ft 438 kts 199°
2026-05-05 20:36 32.79881 33.23896 34084 ft 437 kts 199°
2026-05-05 20:37 32.73918 33.22467 34091 ft 437 kts 199°
2026-05-05 20:37 32.67953 33.21042 34091 ft 437 kts 199°
2026-05-05 20:38 32.61994 33.19620 34070 ft 436 kts 199°
2026-05-05 20:38 32.56042 33.18198 34084 ft 436 kts 199°
2026-05-05 20:39 32.50098 33.16776 34103 ft 436 kts 199°
2026-05-05 20:39 32.44183 33.15363 34076 ft 436 kts 199°
2026-05-05 20:40 32.38233 33.13950 34074 ft 436 kts 199°
2026-05-05 20:40 32.32280 33.12529 34077 ft 437 kts 199°
2026-05-05 20:41 32.26319 33.11104 34086 ft 437 kts 199°
2026-05-05 20:41 32.20279 33.10085 34063 ft 448 kts 187°
2026-05-05 20:42 32.14006 33.10390 34073 ft 451 kts 185°
2026-05-05 20:42 32.07729 33.10712 34084 ft 451 kts 185°
2026-05-05 20:43 32.01450 33.11026 34061 ft 451 kts 185°
2026-05-05 20:43 31.95179 33.11344 34087 ft 451 kts 185°
2026-05-05 20:44 31.88954 33.11654 34089 ft 450 kts 185°
2026-05-05 20:44 31.82693 33.11960 34096 ft 450 kts 185°
2026-05-05 20:45 31.73306 33.12432 34084 ft 449 kts 185°
2026-05-05 20:45 31.67070 33.12755 34092 ft 448 kts 185°
2026-05-05 20:46 31.60848 33.13066 34088 ft 447 kts 185°
2026-05-05 20:46 31.54631 33.13374 34053 ft 447 kts 185°
2026-05-05 20:47 31.48421 33.13689 34059 ft 447 kts 185°
2026-05-05 20:47 31.42211 33.14007 34061 ft 446 kts 185°
2026-05-05 20:48 31.36030 33.15080 34057 ft 462 kts 169°
2026-05-05 20:48 31.33032 33.16544 34052 ft 473 kts 159°
2026-05-05 20:48 31.30130 33.18391 34063 ft 474 kts 159°
2026-05-05 20:49 31.24329 33.22075 34060 ft 474 kts 159°
2026-05-05 20:49 31.18520 33.25740 34063 ft 474 kts 159°
2026-05-05 20:50 31.12747 33.29373 34068 ft 474 kts 159°
2026-05-05 20:50 31.06936 33.33023 34070 ft 474 kts 159°
2026-05-05 20:51 31.01124 33.36663 34035 ft 474 kts 159°
2026-05-05 20:51 30.95325 33.40306 34066 ft 473 kts 159°
2026-05-05 20:52 30.89534 33.43940 34083 ft 472 kts 159°
2026-05-05 20:52 30.83741 33.47555 34085 ft 472 kts 159°
2026-05-05 20:53 30.77985 33.51140 34101 ft 472 kts 159°
2026-05-05 20:53 30.72207 33.54747 34064 ft 471 kts 159°
2026-05-05 20:54 30.66423 33.58351 34093 ft 471 kts 159°
2026-05-05 20:54 30.60645 33.61941 34101 ft 471 kts 159°
2026-05-05 20:55 30.54871 33.65523 34112 ft 470 kts 159°
2026-05-05 20:55 30.49103 33.69091 34100 ft 470 kts 159°
2026-05-05 20:56 30.43333 33.72666 34093 ft 470 kts 159°
2026-05-05 20:56 30.37574 33.76230 34116 ft 469 kts 159°
2026-05-05 20:57 30.31818 33.79783 34125 ft 468 kts 159°
2026-05-05 20:57 30.26070 33.83331 34129 ft 468 kts 159°
2026-05-05 20:58 30.20334 33.86867 34126 ft 467 kts 159°
2026-05-05 20:58 30.14638 33.90370 34093 ft 466 kts 159°
2026-05-05 20:59 30.08907 33.93882 34118 ft 465 kts 159°
2026-05-05 20:59 30.03194 33.97386 34124 ft 465 kts 160°
2026-05-05 21:00 29.97483 34.00891 34139 ft 464 kts 160°
2026-05-05 21:00 29.91775 34.04386 34143 ft 464 kts 160°
2026-05-05 21:01 29.86073 34.07866 34109 ft 463 kts 160°
2026-05-05 21:01 29.80372 34.11337 34132 ft 463 kts 159°
2026-05-05 21:02 29.74714 34.14788 34144 ft 463 kts 159°
2026-05-05 21:02 29.69025 34.18261 34143 ft 463 kts 160°
2026-05-05 21:03 29.63325 34.21694 34144 ft 460 kts 163°
2026-05-05 21:03 29.60369 34.22978 34157 ft 449 kts 172°
2026-05-05 21:03 29.57339 34.23710 34123 ft 439 kts 181°
2026-05-05 21:04 29.51286 34.24390 34145 ft 437 kts 182°
2026-05-05 21:04 29.45236 34.25079 34048 ft 435 kts 182°
2026-05-05 21:05 29.42250 34.25426 33769 ft 429 kts 182°
2026-05-05 21:05 29.40287 34.25654 33591 ft 427 kts 182°
2026-05-05 21:05 29.37345 34.25992 33247 ft 422 kts 182°
2026-05-05 21:05 29.34429 34.26323 32772 ft 418 kts 182°
2026-05-05 21:06 29.31551 34.26647 32298 ft 413 kts 182°
2026-05-05 21:06 29.28709 34.26966 31846 ft 408 kts 182°
2026-05-05 21:06 29.25894 34.27281 31376 ft 404 kts 182°
2026-05-05 21:06 29.23104 34.27594 30915 ft 401 kts 182°
2026-05-05 21:07 29.20341 34.27904 30463 ft 397 kts 182°
2026-05-05 21:07 29.17595 34.28214 29984 ft 395 kts 181°
2026-05-05 21:07 29.14875 34.28523 29526 ft 390 kts 181°
2026-05-05 21:07 29.12193 34.28827 29094 ft 385 kts 181°
2026-05-05 21:08 29.09542 34.29127 28660 ft 380 kts 182°
2026-05-05 21:08 29.06926 34.29421 28240 ft 375 kts 181°
2026-05-05 21:08 29.04373 34.29705 27855 ft 371 kts 181°
2026-05-05 21:08 29.01817 34.29990 27461 ft 366 kts 181°
2026-05-05 21:09 28.99289 34.30274 27061 ft 362 kts 181°
2026-05-05 21:09 28.96795 34.30555 26677 ft 358 kts 181°
2026-05-05 21:09 28.94322 34.30835 26301 ft 356 kts 181°
2026-05-05 21:09 28.91856 34.31111 25921 ft 354 kts 181°
2026-05-05 21:10 28.89404 34.31383 25550 ft 353 kts 181°
2026-05-05 21:10 28.86969 34.31654 25180 ft 351 kts 181°
2026-05-05 21:10 28.84540 34.31924 24820 ft 353 kts 181°
2026-05-05 21:10 28.82006 34.32195 24404 ft 375 kts 181°
2026-05-05 21:11 28.79367 34.32475 24002 ft 383 kts 181°
2026-05-05 21:11 28.76711 34.32770 23571 ft 383 kts 180°
2026-05-05 21:11 28.74099 34.33072 23118 ft 381 kts 180°
2026-05-05 21:11 28.71469 34.33380 22687 ft 379 kts 180°
2026-05-05 21:12 28.68839 34.33684 22261 ft 377 kts 180°
2026-05-05 21:12 28.66231 34.33980 21819 ft 375 kts 180°
2026-05-05 21:12 28.63643 34.34269 21385 ft 373 kts 180°
2026-05-05 21:12 28.61069 34.34552 20953 ft 371 kts 180°
2026-05-05 21:13 28.58512 34.34833 20511 ft 368 kts 180°
2026-05-05 21:13 28.55969 34.35117 20079 ft 366 kts 180°
2026-05-05 21:13 28.53438 34.35404 19629 ft 364 kts 180°
2026-05-05 21:13 28.50919 34.35688 19202 ft 362 kts 180°
2026-05-05 21:14 28.48417 34.35967 18764 ft 360 kts 180°
2026-05-05 21:14 28.45930 34.36242 18336 ft 358 kts 180°
2026-05-05 21:14 28.43457 34.36512 17856 ft 358 kts 180°
2026-05-05 21:14 28.40975 34.36782 17420 ft 357 kts 180°
2026-05-05 21:15 28.38508 34.37052 16987 ft 355 kts 180°
2026-05-05 21:15 28.36051 34.37322 16561 ft 353 kts 180°
2026-05-05 21:15 28.33651 34.37589 16141 ft 350 kts 180°
2026-05-05 21:15 28.31200 34.37863 15705 ft 348 kts 180°
2026-05-05 21:16 28.28828 34.38128 15295 ft 346 kts 180°
2026-05-05 21:16 28.26438 34.38395 14875 ft 344 kts 180°
2026-05-05 21:16 28.24057 34.38662 14461 ft 343 kts 180°
2026-05-05 21:16 28.21684 34.38927 14030 ft 342 kts 180°
2026-05-05 21:17 28.19339 34.39189 13722 ft 333 kts 180°
2026-05-05 21:17 28.17041 34.39443 13188 ft 330 kts 180°
2026-05-05 21:17 28.14779 34.39694 12787 ft 324 kts 180°
2026-05-05 21:17 28.12548 34.39941 12389 ft 321 kts 180°
2026-05-05 21:18 28.10334 34.40186 11995 ft 318 kts 179°
2026-05-05 21:18 28.08139 34.40426 11606 ft 316 kts 179°
2026-05-05 21:18 28.05958 34.40663 11261 ft 314 kts 180°
2026-05-05 21:18 28.03788 34.40901 10888 ft 313 kts 179°
2026-05-05 21:19 28.01626 34.41139 10512 ft 311 kts 179°
2026-05-05 21:19 27.99468 34.41257 10135 ft 309 kts 189°
2026-05-05 21:19 27.97381 34.40956 9914 ft 297 kts 193°
2026-05-05 21:19 27.95356 34.40635 9647 ft 292 kts 193°
2026-05-05 21:20 27.93346 34.40317 9237 ft 291 kts 192°
2026-05-05 21:20 27.91339 34.39997 8787 ft 291 kts 192°
2026-05-05 21:20 27.89337 34.39677 8405 ft 289 kts 191°
2026-05-05 21:20 27.87343 34.39359 7983 ft 288 kts 191°
2026-05-05 21:21 27.85362 34.39044 7541 ft 289 kts 190°
2026-05-05 21:21 27.83393 34.38733 7225 ft 282 kts 190°
2026-05-05 21:21 27.81450 34.38425 6668 ft 282 kts 190°
2026-05-05 21:21 27.79514 34.38113 6167 ft 279 kts 190°
2026-05-05 21:22 27.77705 34.37450 5725 ft 271 kts 212°
2026-05-05 21:22 27.76311 34.36074 5309 ft 267 kts 235°
2026-05-05 21:22 27.75512 34.34201 4905 ft 266 kts 257°
2026-05-05 21:22 27.75428 34.32141 4565 ft 265 kts 280°
2026-05-05 21:23 27.76056 34.30207 4242 ft 263 kts 302°
2026-05-05 21:23 27.77222 34.28635 3905 ft 260 kts 313°
2026-05-05 21:23 27.78438 34.27165 3660 ft 256 kts 314°
2026-05-05 21:23 27.79636 34.25710 3531 ft 244 kts 313°
2026-05-05 21:24 27.80779 34.24390 3404 ft 233 kts 323°
2026-05-05 21:24 27.82238 34.23835 3270 ft 220 kts
2026-05-05 21:24 27.83621 34.24494 3106 ft 220 kts 37°
2026-05-05 21:24 27.84736 34.25622 2939 ft 208 kts 41°
2026-05-05 21:25 27.85752 34.26701 2773 ft 194 kts 41°
2026-05-05 21:25 27.86699 34.27692 2679 ft 177 kts 41°
2026-05-05 21:25 27.87577 34.28606 2512 ft 167 kts 40°
2026-05-05 21:25 27.88417 34.29480 2316 ft 162 kts 41°
2026-05-05 21:26 27.89239 34.30335 2143 ft 160 kts 41°
2026-05-05 21:26 27.90047 34.31176 1930 ft 155 kts 40°
2026-05-05 21:26 27.90832 34.31993 1728 ft 153 kts 40°
2026-05-05 21:26 27.91609 34.32801 1552 ft 152 kts 40°
2026-05-05 21:27 27.92380 34.33605 1358 ft 149 kts 40°
2026-05-05 21:27 27.93142 34.34398 1160 ft 148 kts 39°
2026-05-05 21:27 27.93902 34.35189 964 ft 148 kts 39°
2026-05-05 21:27 27.94660 34.35978 766 ft 148 kts 39°
2026-05-05 21:28 27.95424 34.36777 534 ft 149 kts 39°
2026-05-05 21:28 27.96184 34.37571 350 ft 149 kts 39°
2026-05-05 21:28 27.96936 34.38353 168 ft 148 kts 39°
2026-05-05 21:28 27.97637 34.39083 136 ft 118 kts 43°
2026-05-05 21:29 27.98114 34.39580 139 ft 68 kts 43°
2026-05-05 21:29 27.98381 34.39860 137 ft 44 kts 43°
2026-05-05 21:29 27.98500 34.39975 138 ft 11 kts
2026-05-05 21:29 27.98559 34.39929 138 ft 10 kts 314°
2026-05-05 21:30 27.98603 34.39877 139 ft 9 kts 314°
2026-05-05 21:30 27.98637 34.39834 139 ft 6 kts 297°
2026-05-05 21:30 27.98619 34.39809 139 ft 6 kts 224°
2026-05-05 21:30 27.98574 34.39759 139 ft 12 kts 222°
2026-05-05 21:31 27.98506 34.39689 139 ft 13 kts 223°
2026-05-05 21:31 27.98438 34.39619 139 ft 13 kts 223°
2026-05-05 21:31 27.98370 34.39547 139 ft 15 kts 223°
2026-05-05 21:31 27.98292 34.39465 139 ft 15 kts 225°
2026-05-05 21:32 27.98288 34.39363 138 ft 13 kts 271°
2026-05-05 21:32 27.98277 34.39299 138 ft 7 kts 291°
2026-05-05 21:32 27.98304 34.39259 138 ft 6 kts 313°
2026-05-05 21:32 27.98307 34.39256 138 ft 0 kts 313°